Tracking 19795 objects as of 19-Jul-2019
HD Live streaming from Space Station
objects crossing your sky now

FENGYUN 1C DEB

Track FENGYUN 1C DEB now!
10-day predictions


NORAD ID: 32153
Int'l Code: 1999-025CSX
Perigee: 595.7 km
Apogee: 916.6 km
Inclination: 98.6 °
Period: 99.8 minutes
Semi major axis: 7127 km
RCS: 0.0005 m2 (small)
Launch date: May 10, 1999
Source: People's Republic of China (PRC)
Launch site: Taiyaun Space Center, China (TSC)

Note: This is SATELLITE DEBRIS
aabbcc
Your satellite tracking list
Your tracking list is empty




NASA's NSSDC Master Catalog

Two Line Element Set (TLE):
1 32153U 99025CSX 19197.11572885 -.00000016  00000-0  87304-5 0  9998
2 32153  98.5765 310.2042 0225143  51.3683 310.7426 14.42881084634131
Source of the keplerian elements: AFSPC